This is the latest recevied weather packets stored in our database for station/object VU36VU-13. If no packets are shown the sender has not sent any weather packets the latest 1 day(s).
| Time | Temp. | Humidity | Pressure | Rain* | Wind** | Luminosity | Snow |
|---|---|---|---|---|---|---|---|
| 1836274136 | 22.22° C | 83% | 1013 hPa | 0 mm | 9.39 m/s, 277° | 400 W/m² | - |
| 1778064401 | 32.78° C | 33% | 1005 hPa | 0 mm | 9.83 m/s, 42° | - | - |
| 1778064281 | 32.78° C | 32% | 1005 hPa | 0 mm | 8.49 m/s, 46° | - | - |
| 1778064161 | 32.78° C | 32% | 1005 hPa | 0 mm | 8.49 m/s, 46° | - | - |
| 1778064041 | 32.78° C | 32% | 1005 hPa | 0 mm | 8.05 m/s, 53° | - | - |
| 1778063921 | 32.78° C | 32% | 1005 hPa | 0 mm | 8.05 m/s, 53° | - | - |
| 1778063802 | 32.78° C | 32% | 1005 hPa | 0 mm | 8.05 m/s, 53° | - | - |
| 1778063561 | 32.78° C | 32% | 1005 hPa | 0 mm | 8.05 m/s, 53° | - | - |
| 1778063441 | 32.78° C | 32% | 1005 hPa | 0 mm | 8.05 m/s, 53° | - | - |
| 1778063321 | 32.78° C | 33% | 1005 hPa | 0 mm | 7.6 m/s, 48° | - | - |
| 1778063201 | 32.78° C | 33% | 1005 hPa | 0 mm | 7.6 m/s, 48° | - | - |
| 1778063081 | 32.78° C | 33% | 1005 hPa | 0 mm | 7.15 m/s, 47° | - | - |
| 1778062961 | 32.78° C | 33% | 1005 hPa | 0 mm | 7.15 m/s, 47° | - | - |
| 1778062841 | 32.78° C | 33% | 1005 hPa | 0 mm | 7.15 m/s, 47° | - | - |
| 1778062721 | 32.78° C | 33% | 1005 hPa | 0 mm | 7.15 m/s, 47° | - | - |
| 1778062601 | 32.78° C | 33% | 1005 hPa | 0 mm | 7.15 m/s, 47° | - | - |
| 1778062361 | 32.78° C | 33% | 1005 hPa | 0 mm | 7.6 m/s, 43° | - | - |
| 1778062241 | 32.78° C | 33% | 1005 hPa | 0 mm | 7.6 m/s, 43° | - | - |
| 1778062121 | 32.78° C | 33% | 1005 hPa | 0 mm | 7.6 m/s, 43° | - | - |
| 1778062001 | 32.78° C | 33% | 1005 hPa | 0 mm | 7.6 m/s, 43° | - | - |
| 1778061886 | 32.78° C | 33% | 1005 hPa | 0 mm | 7.6 m/s, 43° | - | - |
| 1778061761 | 32.78° C | 33% | 1005 hPa | 0 mm | 7.6 m/s, 43° | - | - |
| 1778061643 | 32.78° C | 33% | 1005 hPa | 0 mm | 7.6 m/s, 43° | - | - |
| 1778061521 | 32.78° C | 33% | 1006 hPa | 0 mm | 7.6 m/s, 40° | - | - |
| 1778061401 | 32.78° C | 33% | 1006 hPa | 0 mm | 7.6 m/s, 40° | - | - |
* Rain latest hour (hover to see other rain measurements)
** Current wind speed in m/s (hover to see current wind gust speed)